Date String (YYYY-MM-DD hh:mm:ss) UTC,Instrument flags,absolute air pressure of the measurement (hPa),sample flow rate (lpm),inlet stack bypass flow (lpm),air temperature of the measurement (°C),ambient temperature measured by the external sensor (°C),aerosol sample conditioner tube jacket temperature (°C),OPC LED temperature (°C),internal box temperature (°C),relative humidity of the measurement (%),span deviation,mass concentration of particles derived from Lorenz-Mie calculation of OPC scattering (μg/m³),mass concentration of particles derived from Lorenz-Mie calculation of OPC scattering (μg/m³),mass concentration of particles derived from Lorenz-Mie calculation of OPC scattering (μg/m³)
DateTimeUTC,F1_M11,P_M11,Q1_M11,Q2_M11,T1_M11,T2_M11,T3_M11,T4_M11,T5_M11,U1_M11,ZSPAN_M11,X2_M11,X0_M11,X1_M11
2024-04-19 18:00:00,SystemResetWarning,0833.2,4.99,000.00,019.8,019.2,000.0,028.2,021.5,026.5,0000.0,0004.10,0006.76,0003.88
2024-04-19 18:01:00,SystemResetWarning,0833.2,4.99,000.00,019.8,019.2,000.0,028.2,021.5,026.4,0000.0,0004.12,0006.83,0003.88
2024-04-19 18:02:00,SystemResetWarning,0833.2,5.00,000.00,019.8,019.2,000.0,028.2,021.5,026.4,0000.0,0004.10,0006.78,0003.87
2024-04-19 18:03:00,SystemResetWarning,0833.2,5.01,000.00,019.8,019.2,000.0,028.2,021.6,026.5,0000.0,0004.07,0006.63,0003.86
2024-04-19 18:04:00,SystemResetWarning,0833.2,5.01,000.00,019.8,019.2,000.0,028.2,021.5,027.1,0000.0,0004.03,0006.46,0003.83
2024-04-19 18:05:00,SystemResetWarning,0833.2,4.99,000.00,019.8,019.2,000.0,028.2,021.5,027.1,0000.0,0004.01,0006.28,0003.82
2024-04-19 18:06:00,SystemResetWarning,0833.2,5.00,000.00,019.8,019.2,000.0,028.2,021.6,027.1,0000.0,0003.99,0005.08,0003.80
2024-04-19 18:07:00,SystemResetWarning,0833.2,4.99,000.00,019.8,019.2,000.0,028.2,021.6,027.0,0000.0,0003.97,0005.09,0003.79
2024-04-19 18:08:00,SystemResetWarning,0833.2,5.00,000.00,019.8,019.2,000.0,028.2,021.5,026.4,0000.0,0003.94,0005.05,0003.75
2024-04-19 18:09:00,SystemResetWarning,0833.2,5.00,000.00,019.8,019.2,000.0,028.2,021.6,026.0,0000.0,0003.89,0004.95,0003.71
2024-04-19 18:10:00,SystemResetWarning,0833.2,5.01,000.00,019.8,019.2,000.0,028.2,021.6,026.1,0000.0,0003.85,0004.90,0003.68
2024-04-19 18:11:00,SystemResetWarning,0833.2,5.01,000.00,019.8,019.2,000.0,028.3,021.6,026.2,0000.0,0003.81,0004.83,0003.64
2024-04-19 18:12:00,SystemResetWarning,0833.2,4.99,000.00,019.8,019.2,000.0,028.3,021.6,026.2,0000.0,0003.76,0004.66,0003.61
2024-04-19 18:13:00,SystemResetWarning,0833.2,4.99,000.00,019.8,019.2,000.0,028.3,021.6,026.5,0000.0,0003.75,0004.52,0003.60
2024-04-19 18:14:00,SystemResetWarning,0833.2,4.99,000.00,019.8,019.2,000.0,028.3,021.6,026.9,0000.0,0003.72,0004.43,0003.58
2024-04-19 18:15:00,SystemResetWarning,0833.2,5.01,000.00,019.8,019.3,000.0,028.3,021.6,026.7,0000.0,0003.69,0004.32,0003.57
2024-04-19 18:16:00,SystemResetWarning,0833.2,5.01,000.00,019.8,019.2,000.0,028.3,021.6,026.7,0000.0,0003.65,0004.20,0003.54
2024-04-19 18:17:00,SystemResetWarning,0833.2,5.00,000.00,019.8,019.3,000.0,028.3,021.6,026.6,0000.0,0003.62,0004.08,0003.52
2024-04-19 18:18:00,SystemResetWarning,0833.2,5.00,000.00,019.8,019.2,000.0,028.3,021.6,026.7,0000.0,0003.64,0004.20,0003.51
2024-04-19 18:19:00,SystemResetWarning,0833.2,4.99,000.00,019.8,019.2,000.0,028.3,021.6,026.5,0000.0,0003.65,0004.30,0003.52
2024-04-19 18:20:00,SystemResetWarning,0833.2,5.00,000.00,019.8,019.2,000.0,028.3,021.6,026.9,0000.0,0003.67,0004.37,0003.54
2024-04-19 18:21:00,SystemResetWarning,0833.2,5.00,000.00,019.8,019.2,000.0,028.3,021.6,026.4,0000.0,0003.66,0004.33,0003.54
2024-04-19 18:22:00,SystemResetWarning,0833.2,5.00,000.00,019.8,019.2,000.0,028.3,021.6,026.4,0000.0,0003.66,0004.66,0003.54
2024-04-19 18:23:00,SystemResetWarning,0833.2,5.01,000.00,019.8,019.2,000.0,028.3,021.6,026.7,0000.0,0003.68,0004.73,0003.55
2024-04-19 18:24:00,SystemResetWarning,0833.2,5.01,000.00,019.8,019.2,000.0,028.3,021.6,026.4,0000.0,0003.69,0004.81,0003.55
2024-04-19 18:25:00,SystemResetWarning,0833.2,5.01,000.00,019.8,019.2,000.0,028.3,021.6,026.5,0000.0,0003.68,0004.78,0003.54
2024-04-19 18:26:00,SystemResetWarning,0833.2,4.99,000.00,019.8,019.2,000.0,028.3,021.6,026.3,0000.0,0003.67,0004.78,0003.53
2024-04-19 18:27:00,SystemResetWarning,0833.2,4.99,000.00,019.8,019.2,000.0,028.3,021.6,026.0,0000.0,0003.69,0004.85,0003.53
2024-04-19 18:28:00,SystemResetWarning,0833.2,5.00,000.00,019.8,019.2,000.0,028.3,021.6,025.6,0000.0,0003.70,0004.91,0003.53
2024-04-19 18:29:00,SystemResetWarning,0833.2,5.00,000.00,019.8,019.2,000.0,028.3,021.6,025.4,0000.0,0003.69,0004.84,0003.53
2024-04-19 18:30:00,SystemResetWarning,0833.2,5.01,000.00,019.8,019.3,000.0,028.3,021.6,025.4,0000.0,0003.67,0004.59,0003.53
2024-04-19 18:31:00,SystemResetWarning,0833.2,5.01,000.00,019.8,019.3,000.0,028.3,021.6,025.6,0000.0,0003.67,0004.57,0003.54
2024-04-19 18:32:00,SystemResetWarning,0833.2,5.01,000.00,019.8,019.3,000.0,028.3,021.6,025.6,0000.0,0003.67,0004.56,0003.53
2024-04-19 18:33:00,SystemResetWarning,0833.3,4.99,000.00,019.8,019.3,000.0,028.3,021.6,025.9,0000.0,0003.69,0004.35,0003.54
2024-04-19 18:34:00,SystemResetWarning,0833.3,4.99,000.00,019.8,019.3,000.0,028.3,021.6,025.6,0000.0,0003.68,0004.22,0003.53
2024-04-19 18:35:00,SystemResetWarning,0833.3,5.00,000.00,019.8,019.3,000.0,028.3,021.6,025.3,0000.0,0003.64,0004.06,0003.52
2024-04-19 18:36:00,SystemResetWarning,0833.2,5.01,000.00,019.8,019.3,000.0,028.3,021.6,025.3,0000.0,0003.66,0004.08,0003.54
2024-04-19 18:37:00,SystemResetWarning,0833.3,5.01,000.00,019.8,019.3,000.0,028.3,021.6,025.3,0000.0,0003.68,0004.13,0003.56
2024-04-19 18:38:00,SystemResetWarning,0833.2,5.00,000.00,019.9,019.3,000.0,028.3,021.6,025.6,0000.0,0003.67,0004.07,0003.56
2024-04-19 18:39:00,SystemResetWarning,0833.2,5.00,000.00,019.9,019.3,000.0,028.3,021.6,025.7,0000.0,0003.67,0004.03,0003.57
2024-04-19 18:40:00,SystemResetWarning,0833.2,5.00,000.00,019.9,019.3,000.0,028.3,021.6,025.4,0000.0,0003.65,0003.98,0003.56
2024-04-19 18:41:00,SystemResetWarning,0833.2,4.99,000.00,019.9,019.3,000.0,028.3,021.6,025.7,0000.0,0003.66,0003.99,0003.57
2024-04-19 18:42:00,SystemResetWarning,0833.2,5.00,000.00,019.9,019.3,000.0,028.3,021.6,025.6,0000.0,0003.67,0004.00,0003.58
2024-04-19 18:43:00,SystemResetWarning,0833.2,5.00,000.00,019.9,019.3,000.0,028.3,021.6,025.6,0000.0,0003.68,0004.04,0003.59
2024-04-19 18:44:00,SystemResetWarning,0833.2,5.00,000.00,019.9,019.3,000.0,028.3,021.6,025.7,0000.0,0003.66,0003.93,0003.58
2024-04-19 18:45:00,SystemResetWarning,0833.2,5.00,000.00,019.9,019.3,000.0,028.3,021.6,025.4,0000.0,0003.64,0003.88,0003.57
2024-04-19 18:46:00,SystemResetWarning,0833.2,5.00,000.00,019.9,019.3,000.0,028.3,021.7,025.6,0000.0,0003.65,0004.04,0003.58
2024-04-19 18:47:00,SystemResetWarning,0833.2,5.00,000.00,019.9,019.3,000.0,028.3,021.7,026.0,0000.0,0003.65,0004.03,0003.56
2024-04-19 18:48:00,SystemResetWarning,0833.2,5.00,000.00,019.9,019.3,000.0,028.3,021.7,025.5,0000.0,0003.63,0004.02,0003.54
2024-04-19 18:49:00,SystemResetWarning,0833.2,5.01,000.00,019.9,019.3,000.0,028.3,021.7,025.1,0000.0,0003.62,0004.04,0003.52
2024-04-19 18:50:00,SystemResetWarning,0833.2,5.00,000.00,019.9,019.3,000.0,028.3,021.7,025.3,0000.0,0003.60,0004.00,0003.51
2024-04-19 18:51:00,SystemResetWarning,0833.3,5.00,000.00,019.9,019.3,000.0,028.3,021.7,025.2,0000.0,0003.60,0003.98,0003.51
2024-04-19 18:52:00,SystemResetWarning,0833.2,5.01,000.00,019.9,019.3,000.0,028.3,021.7,025.7,0000.0,0003.61,0004.02,0003.51
2024-04-19 18:53:00,SystemResetWarning,0833.2,4.99,000.00,019.9,019.3,000.0,028.3,021.7,026.0,0000.0,0003.61,0004.09,0003.52
2024-04-19 18:54:00,SystemResetWarning,0833.2,5.00,000.00,019.9,019.3,000.0,028.3,021.7,025.7,0000.0,0003.61,0004.04,0003.52
2024-04-19 18:55:00,SystemResetWarning,0833.2,5.00,000.00,019.9,019.4,000.0,028.3,021.7,026.0,0000.0,0003.60,0004.00,0003.53
2024-04-19 18:56:00,SystemResetWarning,0833.2,5.00,000.00,019.9,019.3,000.0,028.4,021.7,026.0,0000.0,0003.62,0004.10,0003.54
2024-04-19 18:57:00,SystemResetWarning,0833.2,5.00,000.00,019.9,019.3,000.0,028.4,021.7,025.8,0000.0,0003.64,0004.05,0003.56
2024-04-19 18:58:00,SystemResetWarning,0833.2,5.00,000.00,019.9,019.3,000.0,028.4,021.7,025.5,0000.0,0003.64,0004.02,0003.56
2024-04-19 18:59:00,SystemResetWarning,0833.2,5.00,000.00,019.9,019.4,000.0,028.4,021.7,025.8,0000.0,0003.64,0004.04,0003.57
